Wind_Speed
20 19 18 17 14 10 10 13 15 17 19 21 22 21 19 18 18 18 19 19 20 20 20 21 21 21 20 19 17 16 15 15 15 15 15 16 16 17 17 18 18 18 18 18 18 18 18 18 18 18 18 17 16 15 15 15 16 16 16 16 16 16 16
22 22 21 19 14 10 11 12 14 16 19 21 22 21 20 19 19 19 19 19 20 20 21 21 21 20 20 19 18 16 15 15 15 15 15 16 16 16 17 17 18 18 18 19 19 19 19 19 19 18 18 18 18 17 17 17 17 16 16 16 16 17 17
26 27 24 20 13 10 10 12 15 17 20 23 22 21 21 20 20 19 20 20 20 21 22 22 22 20 19 18 18 17 16 16 16 16 17 17 17 17 17 18 18 18 19 19 19 19 20 20 20 19 19 18 18 18 18 18 19 18 18 17 17 17 17
27 29 25 19 12 10 11 13 16 18 22 24 23 22 21 20 20 21 21 22 22 23 23 24 23 22 21 19 19 18 18 18 18 19 19 20 20 20 20 20 20 20 21 21 21 21 21 21 21 21 21 20 20 20 19 19 20 20 20 19 18 18 18
24 22 19 14 12 15 17 17 18 21 23 25 25 24 22 20 21 23 24 25 24 24 25 24 24 23 22 22 21 21 21 21 22 22 23 23 24 24 24 24 24 24 23 24 24 24 24 24 24 23 23 23 23 22 21 21 20 20 21 21 20 20 19
16 16 16 16 20 25 27 24 22 22 24 26 26 26 25 23 24 26 27 27 27 26 26 25 24 23 23 23 23 24 24 24 25 26 26 27 27 27 28 28 28 27 27 27 26 27 27 27 28 27 27 26 26 25 25 24 23 22 22 22 22 21 21
19 22 24 24 27 30 32 30 26 25 27 27 27 28 28 27 27 28 29 29 28 27 26 25 24 24 24 24 25 26 26 27 28 28 29 30 30 30 30 30 30 30 30 30 29 29 29 29 30 30 30 30 30 29 28 27 26 25 24 23 23 23 22
29 30 29 28 28 29 31 31 30 31 31 29 28 30 30 30 30 31 31 30 29 27 26 25 25 26 26 27 27 28 29 30 31 31 32 33 33 34 34 33 33 33 32 32 32 32 31 31 31 32 33 33 33 32 31 30 29 28 27 26 25 25 24
29 28 27 27 28 29 30 30 31 33 33 31 31 31 30 30 31 31 31 30 30 28 26 26 27 28 29 29 30 31 32 33 34 35 35 36 37 37 38 37 37 36 35 35 34 34 34 34 33 33 33 34 34 34 34 33 31 30 29 28 28 27 26
27 27 26 26 27 28 29 29 30 32 32 33 33 32 30 30 31 31 31 31 32 32 31 31 32 33 33 33 33 34 35 36 37 37 38 39 39 39 39 39 39 38 38 37 37 36 36 36 35 35 35 35 36 36 35 35 34 33 31 30 29 28 28
27 26 27 27 27 27 27 28 29 30 30 31 31 31 31 32 32 32 33 33 34 35 36 37 37 37 37 37 37 37 38 38 39 39 40 40 40 40 40 40 40 40 40 40 39 39 38 38 37 36 36 37 37 37 37 37 36 36 35 33 31 30 30
27 26 27 28 28 28 27 27 28 28 28 28 29 31 34 35 34 34 35 36 37 38 39 40 41 41 41 41 41 41 41 42 42 42 42 42 42 42 42 42 42 42 42 42 42 41 41 40 39 38 38 37 38 38 38 38 38 37 37 37 35 33 32
26 26 27 28 29 29 28 28 27 28 28 29 31 34 36 37 37 37 38 39 40 40 40 41 42 43 43 43 43 44 44 44 44 44 44 44 44 44 44 44 44 44 44 44 44 43 42 41 41 40 39 38 38 38 39 39 39 38 38 38 38 37 35
27 27 27 27 28 28 28 29 29 28 29 31 33 36 38 39 39 40 40 41 42 42 42 42 42 43 44 44 44 45 45 46 46 46 47 46 46 46 46 46 46 45 45 45 45 44 44 43 42 41 41 39 39 38 38 39 39 39 38 37 38 38 37
26 27 26 26 27 28 30 31 32 31 32 33 35 37 39 40 40 41 42 43 43 44 43 43 43 44 44 45 46 46 46 47 47 47 48 48 48 48 47 47 46 46 46 45 45 45 44 43 42 41 41 40 40 39 39 39 39 39 38 37 37 37 37
27 28 28 28 29 30 31 32 33 34 35 36 37 38 39 40 41 41 42 43 44 44 44 45 45 46 46 46 47 47 47 48 48 48 48 48 48 48 47 47 46 46 45 45 45 44 44 43 42 41 41 40 40 40 39 39 39 39 38 38 37 37 36
30 31 30 29 31 32 33 34 34 34 35 36 37 38 39 39 40 41 41 42 43 43 44 44 45 46 46 47 47 48 48 48 48 48 48 47 47 47 46 46 45 45 44 44 44 44 44 43 43 42 41 41 41 41 41 41 40 39 38 37 37 37 36
32 33 33 33 34 35 36 37 36 36 37 38 39 40 40 40 41 41 41 42 43 43 44 44 45 45 46 46 47 47 47 47 47 47 47 47 47 47 47 46 46 45 45 45 44 44 44 44 44 43 43 42 42 42 42 42 41 40 39 38 38 39 38
34 35 37 37 38 38 39 39 39 40 42 44 44 44 43 43 43 43 44 44 45 45 46 46 46 47 47 47 48 48 48 48 49 49 49 49 49 49 49 49 48 48 47 47 46 46 45 46 45 45 45 44 44 44 44 43 42 42 41 40 40 40 40
34 36 37 38 39 40 41 42 43 45 47 48 48 47 47 46 46 46 47 47 48 48 49 49 49 50 50 50 50 51 51 51 51 51 51 52 52 51 51 51 50 50 49 48 48 47 47 47 46 46 46 46 46 46 46 45 44 43 43 42 42 43 43
35 36 37 37 39 41 43 45 46 47 48 49 49 49 49 49 49 50 50 50 50 51 51 52 52 51 51 51 51 51 51 51 51 51 51 51 51 51 50 50 50 49 49 48 48 47 47 46 46 46 47 47 47 47 47 47 46 45 45 44 44 45 45
37 38 39 40 41 42 43 45 45 47 48 49 50 50 51 51 52 52 52 52 52 51 51 51 50 49 48 47 47 47 46 46 46 46 46 46 46 46 46 46 46 45 45 45 45 44 44 44 44 45 45 46 47 47 47 47 47 47 46 45 46 45 46
39 41 43 43 43 44 45 46 46 47 49 50 50 50 51 52 52 51 51 50 49 48 47 45 44 43 42 42 41 41 41 40 40 40 40 40 40 40 40 40 40 40 41 40 40 40 40 40 41 42 42 43 44 45 46 46 46 46 46 45 46 46 45
40 42 44 44 44 46 48 48 48 50 51 51 50 50 50 50 49 48 46 45 44 42 41 40 39 39 39 39 39 39 39 38 37 37 37 36 36 36 36 37 37 37 37 37 36 36 37 37 37 38 38 39 40 41 43 44 43 44 44 44 44 44 44
41 43 44 45 45 47 49 49 49 51 51 50 48 46 46 46 44 43 41 40 39 38 37 37 37 37 38 38 38 39 39 38 37 36 35 34 34 34 34 34 34 34 33 33 33 33 33 34 34 34 34 36 36 38 39 40 40 40 40 41 42 43 43
43 44 45 46 46 49 50 49 48 48 49 48 44 41 41 41 39 38 37 37 37 37 37 36 36 36 36 36 37 38 38 38 37 35 34 33 32 32 31 31 31 31 31 31 31 31 31 31 31 31 31 32 33 34 35 36 36 35 36 37 39 40 40
45 46 47 47 47 48 49 48 44 43 43 43 39 36 36 37 36 36 36 36 36 36 35 35 34 34 34 34 35 36 37 36 34 32 32 31 31 30 29 29 30 30 30 30 29 29 29 29 29 29 29 30 31 31 32 33 33 32 32 34 36 36 36
46 47 47 47 46 46 45 42 38 36 36 36 36 35 35 35 35 35 34 34 34 33 33 32 32 32 33 33 34 34 34 32 30 29 29 29 30 29 28 28 29 29 28 28 28 28 28 28 28 28 28 29 29 30 30 31 32 31 31 32 33 34 34
46 46 45 44 42 40 38 35 32 33 34 35 35 35 34 33 33 32 32 32 31 31 30 30 31 31 31 31 31 30 30 29 27 26 26 27 27 28 27 28 28 27 27 26 26 27 27 27 27 27 27 28 28 28 29 30 31 31 32 32 32 33 33
44 43 41 39 35 33 32 31 31 32 34 34 34 33 32 31 30 30 30 30 30 29 30 30 30 30 30 29 28 28 27 26 26 25 24 25 25 26 26 26 26 26 26 25 25 25 25 25 26 26 26 27 27 28 28 28 29 30 31 31 31 32 32
40 38 36 32 29 28 29 30 31 32 33 33 32 30 29 29 29 29 30 29 29 29 29 29 29 28 28 27 27 27 26 26 25 25 24 24 25 25 25 25 25 25 24 24 24 24 24 24 25 25 25 26 27 27 27 28 28 29 29 30 30 30 31
34 32 31 29 27 28 29 29 29 30 31 31 29 28 28 28 28 28 29 29 29 28 28 28 27 27 26 26 26 26 26 25 25 25 25 25 25 25 25 26 26 26 25 25 24 24 24 24 24 25 25 26 26 27 27 27 27 28 28 29 29 29 30
30 29 29 27 26 28 29 28 28 28 28 29 28 27 27 27 27 28 28 28 28 28 27 27 26 25 25 24 24 24 24 23 23 23 23 23 23 23 24 24 24 24 24 24 24 24 24 24 24 24 25 26 26 26 26 26 26 26 27 27 28 28 28
29 29 28 27 26 27 28 27 27 27 28 28 28 28 28 28 27 27 27 27 27 27 27 25 24 23 23 23 22 22 22 21 21 21 22 22 21 21 21 22 22 22 21 21 21 21 21 22 23 23 24 25 26 26 26 26 26 25 25 26 26 26 27
27 28 29 28 27 27 27 26 26 27 27 28 28 28 27 27 27 27 26 26 25 25 24 23 22 22 22 22 21 21 21 21 21 20 20 21 20 20 20 20 21 21 21 20 20 19 18 18 19 20 21 22 23 25 26 26 26 26 25 25 25 26 26
27 27 28 28 27 26 26 25 26 27 27 28 28 27 26 26 26 25 24 23 22 22 22 22 22 22 21 21 21 21 21 21 21 20 20 20 20 20 20 20 21 21 21 21 21 20 20 19 19 20 20 20 20 21 22 24 25 25 25 25 25 25 25
27 26 26 27 26 25 25 25 26 27 27 27 27 26 26 26 24 23 22 21 21 21 21 21 21 21 21 21 21 21 21 20 20 20 20 20 21 21 21 21 21 21 22 22 22 21 21 21 20 21 21 21 21 21 21 22 22 23 23 24 24 25 25
26 25 25 26 26 26 26 27 27 27 27 26 25 26 26 25 23 22 22 21 21 20 20 20 20 19 20 20 20 20 20 20 20 20 20 21 21 21 22 22 21 21 22 22 21 21 21 21 21 21 21 21 22 22 22 22 22 22 23 23 24 24 25
Wind_Direction
297 297 292 290 283 292 338 338 327 327 328 330 332 333 333 330 331 334 334 335 334 333 332 329 328 326 323 321 320 320 321 320 321 320 319 319 318 319 319 319 318 317 315 314 314 313 311 309 309 308 308 307 304 301 298 297 296 296 294 291 288 287 288
287 285 277 272 277 304 329 319 315 321 323 325 327 329 331 330 330 329 328 327 328 329 328 326 325 323 320 317 315 316 317 317 318 317 316 316 315 316 316 316 316 316 315 314 314 313 312 310 308 307 305 303 301 298 296 294 294 294 294 293 289 284 281
277 271 266 265 275 304 313 307 314 321 321 321 323 328 330 329 328 326 324 322 322 323 323 323 322 319 316 312 308 307 308 309 309 310 310 310 310 311 311 311 311 311 312 311 311 310 309 308 307 306 304 301 298 296 294 292 292 292 291 291 290 284 280
285 271 263 266 276 299 309 312 318 318 316 317 321 326 328 326 326 325 322 321 319 319 319 318 317 315 312 308 303 301 301 303 304 306 307 306 307 307 307 307 306 306 306 306 306 305 304 304 304 303 303 301 299 296 294 292 291 291 290 289 288 284 282
301 283 270 274 294 314 320 320 315 310 310 314 318 323 324 323 323 322 322 321 319 317 316 315 313 310 308 304 301 299 298 300 302 303 305 305 305 305 305 305 304 303 303 302 302 302 301 301 300 299 300 299 298 296 294 292 290 290 289 288 286 283 283
308 300 300 304 307 310 310 308 305 306 309 311 315 320 320 319 319 320 322 321 318 316 314 313 311 307 306 303 300 299 298 299 300 301 302 303 303 304 303 303 302 301 301 300 299 299 300 300 299 298 297 296 295 294 293 292 290 289 288 287 286 284 283
310 310 314 314 309 307 306 300 298 306 312 312 314 316 315 315 315 316 318 318 317 315 313 313 311 309 307 304 301 300 298 298 299 300 301 301 302 302 301 301 300 299 299 298 298 298 297 298 298 297 296 295 294 292 291 290 288 287 287 286 286 285 283
314 315 318 318 313 311 308 301 300 306 311 311 312 313 311 311 312 313 314 316 316 315 313 313 311 310 308 306 304 301 299 298 297 297 299 300 301 301 300 300 298 297 297 296 296 296 296 295 294 294 294 293 292 290 289 287 285 284 284 284 283 283 282
317 318 319 317 314 311 308 304 303 304 304 303 305 309 309 308 309 310 311 313 314 313 311 311 310 308 307 305 304 302 300 298 297 297 298 298 299 300 299 299 298 296 295 294 294 294 293 293 292 291 290 290 289 288 287 286 283 281 280 280 280 280 281
316 316 315 314 314 314 311 308 305 303 301 299 299 303 307 308 307 307 307 309 311 310 308 307 306 305 303 302 301 299 298 296 296 296 297 297 297 298 297 297 296 296 295 294 293 292 291 291 290 289 288 287 287 286 285 284 283 282 280 277 276 276 276
314 314 313 313 313 314 314 312 308 306 305 303 298 298 303 307 306 305 305 306 307 307 306 306 305 304 303 302 301 299 297 296 296 295 295 296 296 296 296 295 295 294 293 292 291 291 290 289 288 287 286 285 284 284 283 282 281 281 280 278 276 273 272
313 313 312 313 312 312 312 311 309 308 308 306 301 297 300 303 304 302 303 303 304 304 304 305 305 304 304 304 303 302 300 299 298 297 296 295 295 295 294 294 293 293 292 291 290 289 289 288 287 286 284 282 282 281 280 280 278 278 278 278 278 275 272
310 310 310 309 308 310 310 308 309 308 306 304 302 299 299 301 301 301 301 302 303 303 303 303 303 303 303 302 302 301 300 299 299 298 297 296 295 295 294 293 293 292 292 291 290 289 289 288 287 286 284 282 280 279 278 277 276 275 275 275 276 275 274
307 307 307 307 308 311 309 307 308 306 303 301 299 298 298 299 300 301 301 303 304 303 303 302 301 300 300 300 299 299 298 298 297 297 296 296 295 294 293 293 292 292 292 291 290 290 289 288 287 286 285 283 280 278 277 276 275 274 273 272 272 272 272
308 309 310 310 311 311 308 306 306 304 301 298 297 297 297 299 301 302 303 305 304 303 302 301 300 299 299 298 298 297 296 295 295 295 295 295 294 294 293 292 292 291 291 290 289 289 288 288 287 285 284 283 281 279 277 275 274 273 272 272 270 269 269
314 313 312 311 309 307 305 303 302 301 299 298 297 298 299 300 302 302 302 302 300 300 300 299 299 298 298 297 296 296 295 295 294 294 294 293 293 292 292 291 291 290 290 289 289 288 287 287 286 285 284 283 281 280 278 275 274 272 272 272 271 269 267
315 313 313 312 309 307 306 304 303 302 300 300 300 301 302 302 301 300 300 299 298 298 297 297 297 297 297 296 295 295 295 294 294 294 293 292 291 291 290 290 289 289 288 288 288 287 287 286 285 284 283 282 281 280 278 276 275 273 272 271 271 270 268
314 314 314 312 311 311 310 310 309 307 305 305 305 306 305 304 303 303 302 300 300 299 298 298 297 297 296 295 295 294 294 293 293 292 291 291 290 289 289 288 287 287 287 286 286 285 285 285 284 283 282 281 280 279 278 277 275 275 273 272 271 270 269
313 314 313 312 313 313 313 312 311 310 310 310 310 310 309 307 307 306 305 304 303 301 300 300 299 298 297 296 295 294 293 293 292 291 290 290 289 288 287 286 286 285 284 284 283 283 282 282 282 281 281 280 279 278 277 276 276 275 275 273 272 271 270
312 312 312 312 313 313 313 312 311 311 311 311 311 311 310 310 309 307 306 305 303 302 301 300 300 299 298 298 297 295 294 293 292 291 290 289 288 287 287 286 285 284 283 283 282 281 280 280 279 279 278 278 277 276 276 275 275 274 274 273 273 272 271
311 311 311 311 311 311 311 310 310 311 310 310 311 310 310 309 307 306 305 305 304 303 302 302 302 301 300 299 298 296 295 294 293 292 290 289 288 287 287 286 285 284 284 283 282 282 281 280 279 278 278 277 276 275 275 274 273 273 272 272 272 272 272
311 311 310 310 309 309 309 309 309 309 309 309 309 308 308 307 306 306 305 305 304 304 303 303 303 302 301 300 299 298 297 296 295 294 293 291 291 289 288 288 287 286 285 284 284 283 282 282 281 280 279 278 277 276 275 274 273 272 272 272 271 271 271
311 310 310 311 311 310 309 309 308 307 307 307 307 307 306 305 305 306 305 305 305 305 305 306 305 305 304 304 303 303 302 301 300 299 297 296 295 294 292 291 290 289 288 287 286 285 284 283 282 281 280 280 279 278 277 275 274 274 273 272 271 271 271
311 310 310 311 311 309 308 309 308 307 306 307 307 307 306 306 306 307 307 307 308 308 309 308 308 308 308 307 307 306 305 304 303 301 301 300 299 298 296 295 293 292 291 290 289 287 286 284 283 282 281 281 280 279 278 278 277 276 276 275 274 273 273
310 309 309 310 310 308 308 309 309 308 308 308 309 309 308 308 309 309 309 310 310 310 310 310 309 309 309 309 309 308 306 304 302 301 301 301 301 300 299 297 296 296 294 293 292 290 288 287 285 284 283 282 281 281 281 281 280 279 278 277 276 274 273
309 309 309 310 310 309 309 310 311 310 309 309 310 311 310 310 311 311 311 311 311 310 310 310 310 310 311 312 312 312 310 307 302 299 299 300 301 301 300 299 298 297 296 295 294 292 290 288 287 285 284 283 283 283 284 284 283 282 281 279 277 275 274
309 310 311 312 312 311 311 312 312 311 310 311 313 313 312 312 313 312 311 311 311 311 311 312 312 312 313 313 314 316 316 312 306 300 298 298 300 301 299 298 297 297 296 296 295 292 290 289 287 286 284 284 283 283 284 284 284 283 282 281 279 277 275
311 312 313 313 312 311 311 312 312 312 313 314 315 315 314 313 313 312 312 312 312 312 312 313 313 313 314 314 315 317 319 318 313 306 300 299 299 300 299 297 296 297 297 297 296 294 292 291 290 289 287 285 284 283 283 282 283 282 281 280 281 280 279
313 313 313 312 312 311 312 314 316 316 316 316 316 315 315 315 315 315 315 314 314 314 314 314 314 314 315 316 316 318 320 321 319 313 307 303 301 301 301 300 299 299 299 298 297 296 294 293 292 291 291 289 288 286 284 283 283 282 281 281 281 281 281
313 312 311 312 313 313 315 318 319 319 318 318 318 317 318 318 318 318 318 317 316 316 315 316 316 317 318 319 319 320 321 322 320 317 313 309 306 305 305 304 303 302 302 302 300 298 297 295 294 294 293 292 291 289 288 287 286 285 284 283 282 282 282
313 312 311 314 316 316 318 321 321 322 323 322 321 320 320 321 320 319 318 317 317 318 318 319 319 320 321 321 321 321 321 321 320 318 316 314 311 310 309 307 307 305 304 304 302 301 300 298 297 297 295 293 292 290 289 289 289 288 288 287 286 285 284
314 312 314 318 319 317 319 322 322 325 327 327 325 323 321 321 320 319 318 318 319 320 321 320 321 321 321 321 322 323 323 322 321 319 318 317 316 314 312 311 309 307 306 304 302 301 300 298 298 297 296 294 292 291 290 290 289 290 290 290 290 290 288
314 313 316 319 319 317 319 321 323 326 328 329 328 326 323 322 320 319 320 321 322 322 322 322 323 324 326 328 329 328 328 327 327 327 326 326 326 324 322 320 318 316 314 311 308 304 301 299 298 297 296 295 294 294 293 292 292 292 292 291 291 292 291
315 316 316 318 317 315 317 320 323 325 326 327 326 325 322 321 321 322 324 324 323 323 325 327 330 332 335 336 335 335 335 337 338 337 336 336 336 337 335 333 333 333 331 329 325 319 312 307 302 298 295 295 296 296 297 296 296 296 294 293 292 293 292
317 316 315 315 315 314 316 319 322 323 324 324 324 322 321 322 324 325 325 325 326 327 330 333 336 337 338 338 338 341 343 345 345 345 344 343 344 346 346 345 345 346 348 348 346 342 336 327 318 310 304 299 298 297 297 298 298 297 296 294 293 292 292
317 314 312 314 315 313 315 318 320 321 322 323 323 322 322 324 326 326 327 328 330 331 334 336 337 337 337 338 341 345 347 347 347 348 347 348 349 351 353 353 351 351 353 354 354 352 349 345 339 333 326 320 314 309 305 303 302 300 299 297 294 293 292
315 313 312 313 313 313 314 316 319 320 321 322 323 323 323 325 326 327 328 330 331 332 335 336 336 336 337 338 342 345 345 346 346 346 347 349 349 350 352 353 352 351 351 352 352 351 350 348 345 341 338 334 331 326 321 317 313 310 306 303 300 298 296
314 313 313 314 314 314 315 316 317 318 320 322 323 323 323 325 326 326 327 328 330 333 335 335 335 335 336 338 341 342 342 342 342 343 345 346 346 346 347 347 347 347 347 347 347 346 345 345 343 341 339 337 335 334 332 329 325 321 316 312 308 305 302
Height
5909 5908 5906 5903 5902 5899 5895 5895 5898 5899 5899 5899 5898 5897 5896 5895 5894 5893 5892 5891 5890 5889 5888 5886 5885 5884 5883 5882 5881 5880 5879 5878 5877 5877 5876 5876 5875 5874 5873 5873 5872 5872 5871 5870 5869 5869 5868 5867 5866 5865 5864 5863 5863 5862 5862 5861 5861 5860 5860 5860 5860 5859 5859
5907 5906 5903 5901 5900 5897 5894 5896 5898 5898 5897 5897 5897 5896 5895 5894 5893 5892 5891 5890 5889 5887 5886 5885 5884 5883 5881 5880 5879 5878 5877 5876 5876 5875 5874 5874 5873 5873 5872 5871 5870 5870 5869 5868 5868 5867 5866 5865 5864 5863 5862 5862 5861 5860 5860 5860 5859 5859 5859 5858 5858 5858 5857
5904 5903 5901 5901 5899 5897 5897 5898 5898 5896 5896 5895 5895 5895 5893 5892 5891 5890 5889 5888 5887 5886 5885 5883 5882 5881 5880 5879 5878 5876 5876 5875 5874 5873 5872 5872 5871 5871 5870 5870 5869 5868 5867 5866 5866 5865 5864 5863 5862 5861 5861 5860 5859 5859 5858 5858 5857 5857 5857 5856 5856 5856 5855
5903 5902 5902 5902 5902 5900 5900 5899 5896 5895 5895 5894 5893 5892 5891 5890 5889 5888 5887 5886 5885 5884 5882 5881 5880 5879 5878 5877 5875 5874 5873 5873 5872 5871 5870 5870 5869 5869 5868 5867 5867 5866 5865 5864 5864 5863 5862 5861 5860 5859 5858 5858 5857 5856 5856 5856 5855 5855 5854 5854 5853 5853 5853
5902 5902 5902 5902 5901 5900 5899 5897 5895 5894 5893 5892 5891 5890 5889 5888 5887 5886 5885 5883 5882 5881 5880 5879 5878 5877 5875 5874 5873 5872 5871 5870 5870 5869 5868 5867 5866 5866 5865 5865 5864 5863 5863 5862 5861 5860 5859 5859 5858 5857 5856 5855 5855 5854 5854 5853 5853 5852 5852 5851 5851 5850 5850
5900 5901 5901 5900 5899 5897 5895 5894 5893 5892 5891 5890 5889 5888 5887 5886 5884 5883 5882 5881 5880 5879 5878 5877 5875 5874 5873 5872 5871 5870 5869 5868 5867 5866 5865 5864 5864 5863 5862 5862 5861 5860 5860 5859 5858 5857 5856 5855 5855 5854 5853 5853 5852 5851 5851 5850 5850 5850 5849 5849 5848 5848 5847
5898 5898 5897 5897 5896 5894 5892 5891 5890 5889 5889 5887 5886 5885 5884 5883 5882 5881 5880 5878 5877 5876 5875 5874 5873 5871 5870 5870 5869 5868 5867 5866 5865 5863 5862 5861 5860 5860 5859 5858 5857 5857 5856 5855 5855 5854 5853 5852 5851 5850 5849 5849 5848 5848 5848 5847 5846 5846 5846 5846 5845 5844 5844
5896 5894 5893 5893 5891 5890 5889 5888 5888 5888 5887 5886 5884 5882 5881 5880 5879 5878 5877 5875 5874 5873 5872 5871 5870 5869 5868 5867 5866 5865 5864 5863 5861 5860 5859 5858 5857 5856 5855 5854 5853 5853 5852 5851 5851 5850 5849 5849 5848 5847 5846 5845 5844 5844 5843 5843 5843 5842 5842 5842 5842 5841 5841
5893 5892 5891 5890 5888 5887 5886 5885 5885 5885 5884 5883 5881 5879 5878 5877 5876 5875 5874 5872 5871 5870 5869 5868 5867 5866 5865 5863 5862 5861 5860 5859 5857 5856 5855 5854 5853 5852 5850 5850 5849 5848 5848 5847 5846 5845 5845 5844 5844 5843 5842 5841 5840 5839 5839 5838 5838 5838 5838 5838 5838 5838 5837
5891 5890 5889 5887 5886 5885 5884 5883 5883 5881 5880 5879 5878 5877 5876 5875 5874 5873 5871 5869 5868 5866 5865 5864 5863 5862 5861 5860 5859 5857 5856 5854 5853 5852 5851 5849 5848 5847 5846 5845 5844 5843 5842 5842 5841 5841 5840 5839 5838 5838 5837 5836 5835 5835 5834 5834 5833 5833 5833 5833 5834 5834 5833
5889 5888 5886 5884 5883 5883 5882 5881 5879 5877 5876 5875 5874 5874 5873 5871 5871 5869 5868 5866 5865 5863 5861 5860 5859 5857 5856 5855 5854 5852 5851 5849 5848 5847 5846 5845 5844 5842 5841 5840 5839 5838 5837 5836 5836 5835 5834 5834 5833 5833 5832 5831 5830 5830 5829 5829 5828 5828 5828 5828 5829 5829 5829
5886 5885 5884 5882 5881 5881 5879 5878 5876 5875 5874 5873 5872 5870 5869 5868 5866 5865 5864 5862 5861 5859 5857 5855 5854 5852 5850 5849 5848 5846 5845 5844 5842 5841 5840 5839 5838 5837 5836 5834 5833 5832 5831 5830 5829 5829 5828 5828 5827 5826 5826 5825 5825 5824 5824 5823 5823 5823 5823 5823 5823 5824 5824
5884 5883 5882 5880 5879 5878 5876 5874 5873 5872 5870 5870 5869 5867 5865 5863 5862 5861 5859 5858 5856 5854 5853 5851 5849 5847 5845 5844 5842 5841 5839 5838 5836 5835 5834 5833 5832 5831 5830 5828 5827 5826 5825 5824 5823 5822 5822 5821 5821 5820 5819 5819 5819 5818 5818 5817 5817 5817 5817 5817 5817 5818 5819
5881 5880 5879 5878 5876 5874 5872 5870 5869 5868 5867 5866 5865 5863 5861 5860 5858 5856 5854 5852 5851 5849 5848 5846 5844 5842 5841 5839 5838 5836 5834 5832 5831 5829 5827 5826 5825 5824 5823 5822 5821 5820 5819 5818 5816 5816 5815 5815 5814 5813 5812 5812 5812 5812 5811 5811 5811 5811 5812 5812 5812 5812 5813
5878 5876 5876 5875 5873 5871 5869 5867 5865 5864 5864 5863 5861 5859 5857 5855 5853 5851 5849 5847 5845 5844 5842 5841 5839 5837 5835 5834 5832 5830 5829 5827 5825 5824 5822 5820 5819 5817 5816 5815 5814 5813 5812 5811 5810 5809 5808 5808 5807 5807 5806 5805 5805 5805 5805 5804 5804 5805 5805 5806 5806 5806 5807
5874 5873 5871 5870 5869 5867 5866 5864 5863 5862 5860 5859 5857 5855 5853 5851 5848 5846 5844 5842 5840 5839 5837 5835 5833 5831 5829 5828 5826 5824 5823 5821 5819 5818 5816 5815 5813 5811 5810 5809 5808 5807 5806 5805 5803 5802 5801 5801 5800 5800 5799 5799 5798 5798 5797 5797 5797 5798 5799 5799 5800 5800 5801
5870 5868 5867 5866 5865 5864 5862 5861 5860 5858 5856 5854 5852 5850 5848 5846 5844 5842 5840 5838 5835 5834 5832 5830 5828 5825 5823 5822 5820 5818 5817 5815 5813 5812 5810 5808 5807 5805 5804 5803 5802 5800 5800 5798 5797 5796 5795 5794 5794 5793 5793 5792 5792 5791 5790 5790 5791 5792 5793 5793 5793 5793 5794
5867 5865 5863 5862 5861 5859 5857 5855 5854 5852 5850 5848 5846 5845 5843 5840 5838 5836 5834 5832 5830 5828 5826 5824 5822 5820 5818 5815 5814 5812 5810 5808 5807 5805 5803 5802 5800 5799 5797 5797 5795 5794 5793 5792 5791 5789 5788 5787 5786 5786 5786 5786 5785 5784 5783 5783 5784 5785 5786 5787 5787 5787 5787
5865 5863 5860 5858 5856 5854 5852 5850 5848 5845 5844 5842 5840 5838 5836 5834 5832 5830 5828 5825 5823 5821 5819 5817 5815 5813 5811 5809 5807 5805 5803 5801 5799 5798 5796 5794 5793 5791 5790 5789 5788 5787 5786 5785 5784 5783 5782 5781 5780 5779 5778 5778 5778 5777 5776 5776 5778 5779 5780 5780 5780 5780 5780
5863 5861 5858 5856 5853 5850 5848 5846 5843 5841 5838 5836 5834 5832 5830 5828 5826 5823 5821 5819 5816 5814 5812 5810 5808 5806 5804 5801 5799 5797 5795 5793 5792 5790 5789 5786 5785 5783 5782 5781 5780 5779 5778 5777 5776 5775 5775 5774 5773 5772 5771 5770 5770 5770 5769 5770 5772 5772 5773 5773 5773 5773 5773
5860 5858 5856 5854 5852 5849 5846 5843 5840 5838 5834 5832 5830 5827 5825 5822 5820 5817 5815 5812 5810 5807 5805 5803 5801 5799 5796 5794 5792 5790 5788 5786 5784 5782 5780 5778 5777 5775 5774 5773 5772 5770 5770 5769 5768 5768 5767 5766 5765 5764 5763 5763 5762 5762 5762 5763 5764 5764 5765 5766 5766 5766 5766
5857 5855 5853 5852 5850 5847 5844 5841 5838 5835 5832 5828 5826 5823 5819 5817 5815 5811 5809 5806 5804 5801 5799 5797 5794 5792 5790 5787 5785 5783 5781 5779 5777 5775 5773 5771 5769 5768 5766 5765 5764 5763 5762 5762 5761 5760 5759 5759 5758 5757 5756 5755 5755 5754 5754 5755 5756 5756 5758 5758 5758 5758 5758
5854 5851 5849 5847 5845 5841 5839 5838 5834 5831 5829 5825 5822 5819 5815 5812 5809 5806 5803 5801 5798 5796 5793 5791 5788 5786 5783 5781 5779 5777 5775 5773 5771 5769 5766 5765 5763 5761 5760 5758 5757 5756 5756 5755 5754 5753 5753 5752 5751 5750 5750 5749 5748 5747 5747 5747 5749 5750 5750 5751 5750 5751 5751
5851 5848 5845 5843 5841 5836 5834 5833 5829 5825 5824 5821 5817 5813 5810 5806 5804 5801 5798 5796 5793 5791 5789 5786 5783 5781 5779 5776 5774 5772 5770 5768 5766 5764 5761 5760 5758 5756 5755 5753 5752 5751 5750 5749 5748 5747 5746 5745 5745 5744 5744 5743 5742 5741 5740 5741 5743 5743 5743 5743 5743 5743 5743
5848 5845 5841 5840 5837 5832 5829 5828 5824 5819 5817 5815 5812 5808 5804 5801 5799 5797 5794 5792 5789 5787 5785 5782 5780 5777 5775 5772 5770 5767 5765 5763 5761 5759 5757 5755 5754 5752 5750 5748 5747 5746 5745 5744 5743 5742 5741 5740 5739 5739 5738 5737 5736 5735 5734 5735 5737 5737 5737 5736 5736 5736 5736
5843 5841 5838 5836 5832 5827 5824 5823 5819 5813 5810 5809 5808 5805 5800 5797 5795 5793 5790 5788 5786 5783 5781 5778 5776 5773 5771 5768 5766 5763 5760 5758 5756 5754 5753 5751 5750 5748 5747 5745 5743 5742 5741 5740 5739 5737 5736 5736 5735 5734 5733 5732 5732 5731 5730 5730 5730 5731 5731 5729 5728 5729 5730
5838 5836 5833 5830 5827 5822 5819 5817 5814 5809 5806 5804 5803 5801 5797 5794 5792 5790 5787 5785 5782 5780 5777 5775 5772 5770 5767 5765 5762 5759 5756 5753 5751 5749 5748 5747 5746 5745 5744 5742 5740 5739 5737 5736 5735 5733 5732 5731 5731 5730 5729 5728 5727 5727 5726 5725 5725 5726 5725 5723 5722 5722 5724
5834 5831 5828 5825 5822 5818 5815 5812 5810 5806 5803 5801 5799 5796 5794 5791 5789 5786 5784 5781 5779 5776 5774 5772 5769 5767 5764 5762 5759 5756 5753 5750 5747 5746 5745 5744 5742 5741 5740 5739 5737 5736 5734 5732 5731 5729 5728 5728 5727 5726 5725 5724 5723 5723 5722 5721 5720 5720 5720 5718 5717 5717 5717
5830 5827 5823 5820 5817 5814 5811 5809 5807 5803 5800 5798 5796 5793 5790 5788 5785 5783 5780 5778 5776 5773 5771 5769 5767 5764 5761 5759 5756 5753 5750 5748 5745 5743 5742 5740 5739 5738 5737 5735 5734 5732 5731 5729 5727 5726 5725 5724 5723 5722 5721 5720 5719 5718 5718 5717 5716 5715 5714 5713 5713 5712 5712
5826 5823 5819 5816 5813 5810 5808 5806 5803 5801 5798 5795 5792 5789 5787 5784 5782 5780 5777 5775 5773 5771 5768 5766 5763 5761 5758 5756 5753 5751 5748 5745 5743 5741 5739 5738 5736 5735 5733 5732 5730 5729 5727 5725 5724 5722 5721 5720 5719 5718 5717 5716 5715 5714 5713 5712 5711 5710 5709 5709 5708 5708 5707
5822 5818 5815 5813 5810 5807 5805 5803 5800 5797 5795 5792 5789 5786 5784 5782 5779 5777 5775 5772 5770 5768 5766 5763 5761 5758 5756 5753 5751 5748 5746 5744 5741 5739 5737 5735 5733 5732 5730 5728 5727 5725 5724 5722 5721 5719 5718 5716 5715 5714 5713 5712 5711 5710 5709 5708 5707 5706 5705 5704 5703 5703 5702
5817 5814 5811 5809 5807 5804 5802 5800 5797 5795 5792 5789 5786 5784 5782 5779 5777 5775 5772 5770 5768 5766 5763 5761 5758 5756 5754 5751 5749 5746 5744 5742 5739 5737 5735 5733 5731 5729 5727 5725 5723 5722 5720 5719 5718 5716 5715 5713 5712 5711 5709 5708 5707 5706 5705 5704 5703 5702 5701 5700 5699 5698 5697
5813 5810 5808 5807 5805 5801 5799 5797 5795 5792 5790 5787 5784 5782 5779 5777 5775 5773 5770 5768 5766 5763 5761 5759 5756 5754 5751 5749 5747 5744 5742 5740 5737 5735 5732 5730 5728 5726 5724 5722 5721 5719 5717 5716 5714 5713 5711 5710 5708 5707 5705 5704 5703 5702 5701 5700 5699 5698 5697 5696 5695 5694 5693
5810 5807 5805 5804 5802 5799 5797 5795 5792 5790 5787 5785 5782 5780 5777 5775 5773 5770 5768 5766 5763 5761 5758 5756 5754 5752 5749 5747 5745 5743 5740 5738 5736 5734 5731 5729 5727 5725 5723 5721 5719 5717 5715 5713 5711 5710 5708 5706 5705 5703 5702 5701 5699 5698 5697 5696 5695 5694 5693 5692 5691 5690 5689
5807 5804 5802 5801 5799 5796 5794 5792 5790 5787 5785 5783 5780 5778 5775 5773 5770 5768 5766 5764 5761 5759 5756 5754 5752 5750 5748 5746 5744 5741 5739 5737 5735 5733 5730 5728 5726 5724 5722 5720 5717 5715 5713 5711 5709 5708 5706 5704 5702 5701 5699 5698 5697 5695 5693 5692 5691 5690 5689 5688 5687 5686 5685
5805 5802 5799 5797 5796 5794 5791 5790 5788 5785 5783 5780 5778 5775 5773 5771 5769 5766 5764 5762 5760 5757 5755 5753 5751 5749 5747 5745 5742 5740 5738 5736 5734 5732 5730 5728 5725 5724 5722 5719 5717 5715 5713 5711 5709 5707 5705 5703 5701 5699 5697 5695 5694 5693 5691 5689 5687 5686 5685 5684 5683 5682 5681
5802 5799 5797 5795 5793 5791 5789 5787 5785 5783 5781 5778 5776 5773 5771 5769 5767 5764 5762 5760 5758 5756 5754 5752 5750 5748 5746 5743 5741 5739 5737 5735 5733 5731 5729 5727 5725 5723 5721 5719 5717 5714 5712 5710 5708 5706 5704 5702 5700 5698 5695 5693 5692 5690 5688 5687 5685 5683 5682 5680 5679 5678 5677
5799 5796 5794 5792 5790 5788 5786 5785 5783 5780 5778 5776 5773 5771 5769 5767 5765 5763 5761 5759 5757 5755 5752 5750 5748 5746 5744 5742 5740 5738 5736 5734 5732 5730 5728 5726 5724 5722 5720 5718 5716 5714 5712 5710 5708 5705 5703 5701 5699 5697 5695 5692 5690 5688 5686 5684 5683 5681 5679 5678 5676 5675 5673